This is the latest recevied weather packets stored in our database for station/object TK5EP-13. If no packets are shown the sender has not sent any weather packets the latest 1 day(s).
| Time | Temp. | Humidity | Pressure | Rain* | Wind** | Luminosity | Snow |
|---|---|---|---|---|---|---|---|
| 1777997046 | 15.56° C | 82% | - | - | 3.58 m/s, 183° | - | - |
| 1777996745 | 15.56° C | 82% | - | - | 4.02 m/s, 180° | - | - |
| 1777996445 | 15.56° C | 81% | - | - | 4.47 m/s, 183° | - | - |
| 1777996141 | 15.56° C | 80% | - | - | 5.36 m/s, 185° | - | - |
| 1777995840 | 15.56° C | 78% | - | - | 4.92 m/s, 187° | - | - |
| 1777995539 | 16.11° C | 76% | - | - | 5.36 m/s, 187° | - | - |
| 1777995239 | 17.22° C | 75% | - | - | 3.58 m/s, 190° | - | - |
| 1777994937 | 17.78° C | 74% | - | - | 3.13 m/s, 184° | - | - |
| 1777994635 | 17.78° C | 73% | - | - | 3.58 m/s, 170° | - | - |
| 1777994335 | 17.78° C | 74% | - | - | 3.58 m/s, 165° | - | - |
| 1777994034 | 17.78° C | 75% | - | - | 3.58 m/s, 186° | - | - |
| 1777993733 | 17.78° C | 75% | - | - | 2.68 m/s, 184° | - | - |
| 1777993429 | 17.78° C | 74% | - | - | 3.58 m/s, 188° | - | - |
| 1777993128 | 17.78° C | 75% | - | - | 2.68 m/s, 184° | - | - |
| 1777992827 | 17.22° C | 74% | - | - | 3.13 m/s, 178° | - | - |
| 1777992527 | 17.22° C | 74% | - | - | 2.24 m/s, 177° | - | - |
| 1777992226 | 17.78° C | 73% | - | - | 2.24 m/s, 172° | - | - |
| 1777991922 | 17.78° C | 74% | - | - | 2.68 m/s, 157° | - | - |
| 1777991621 | 17.22° C | 74% | - | - | 2.24 m/s, 185° | - | - |
| 1777991320 | 17.78° C | 72% | - | - | 1.79 m/s, 166° | - | - |
| 1777991019 | 17.78° C | 73% | - | - | 2.24 m/s, 188° | - | - |
| 1777990718 | 17.78° C | 75% | - | - | 2.68 m/s, 188° | - | - |
| 1777990417 | 17.22° C | 74% | - | - | 3.13 m/s, 207° | - | - |
| 1777990114 | 17.22° C | 73% | - | - | 3.58 m/s, 192° | - | - |
| 1777989813 | 17.78° C | 74% | - | - | 1.79 m/s, 199° | - | - |
* Rain since midnight (hover to see other rain measurements)
** Current wind speed in m/s (hover to see current wind gust speed)